| time (UTC) | temp F | wind direction | speed MPH | gust MPH | rain 1hr in | rain 24hr in | rain mn in | humidity % | barometer mb |
| 20260905010050 | 71 | 93 | 0.0 | 0.0 | 0.00 | 0.00 | 0.00 | 84 | 1008.4 |
| 20260905004612 | 74 | 93 | 0.0 | 0.0 | 0.00 | 0.00 | 0.00 | 83 | 1008.5 |
| 20260905003024 | 75 | 93 | 0.0 | 0.0 | 0.00 | 0.00 | 0.00 | 81 | 1008.4 |
| 20260905001542 | 76 | 93 | 0.0 | 2.0 | 0.00 | 0.00 | 0.00 | 78 | 1008.5 |
| 20260905000048 | 78 | 78 | 2.0 | 5.0 | 0.00 | 0.00 | 0.00 | 75 | 1008.4 |
| 20260904234557 | 78 | 60 | 2.0 | 7.0 | 0.00 | 0.00 | 0.00 | 73 | 1008.4 |
| 20260904233023 | 80 | 81 | 2.0 | 7.0 | 0.00 | 0.00 | 0.00 | 72 | 1008.4 |
| 20260904231508 | 81 | 105 | 2.0 | 9.0 | 0.00 | 0.00 | 0.00 | 68 | 1008.4 |
| 20260904230017 | 81 | 65 | 2.0 | 5.0 | 0.00 | 0.00 | 0.00 | 67 | 1008.5 |
| 20260904224516 | 83 | 54 | 3.0 | 8.0 | 0.00 | 0.00 | 0.00 | 66 | 1008.4 |
| 20260904223017 | 84 | 68 | 3.0 | 8.0 | 0.00 | 0.00 | 0.00 | 63 | 1008.2 |
| 20260904221529 | 83 | 123 | 3.0 | 7.0 | 0.00 | 0.00 | 0.00 | 64 | 1008.2 |
| 20260904220037 | 84 | 69 | 1.0 | 8.0 | 0.00 | 0.00 | 0.00 | 61 | 1008.2 |
| 20260904214523 | 85 | 61 | 5.0 | 9.0 | 0.00 | 0.00 | 0.00 | 61 | 1008.2 |
| 20260904213042 | 85 | 86 | 3.0 | 6.0 | 0.00 | 0.00 | 0.00 | 63 | 1008.3 |
| 20260904211558 | 85 | 68 | 3.0 | 7.0 | 0.00 | 0.00 | 0.00 | 62 | 1008.3 |
| 20260904210059 | 85 | 44 | 5.0 | 9.0 | 0.00 | 0.00 | 0.00 | 60 | 1008.5 |
| 20260904204610 | 85 | 26 | 4.0 | 9.0 | 0.00 | 0.00 | 0.00 | 61 | 1008.5 |
| 20260904203006 | 84 | 103 | 4.0 | 10.0 | 0.00 | 0.00 | 0.00 | 63 | 1008.4 |
| 20260904201507 | 84 | 85 | 3.0 | 7.0 | 0.00 | 0.00 | 0.00 | 62 | 1008.5 |
| 20260904200017 | 83 | 8 | 4.0 | 8.0 | 0.00 | 0.00 | 0.00 | 65 | 1008.5 |
| 20260904194603 | 85 | 53 | 2.0 | 7.0 | 0.00 | 0.00 | 0.00 | 65 | 1008.6 |
| 20260904193104 | 82 | 26 | 3.0 | 8.0 | 0.00 | 0.00 | 0.00 | 69 | 1008.7 |
| 20260904191548 | 82 | 34 | 1.0 | 6.0 | 0.00 | 0.00 | 0.00 | 67 | 1008.8 |
| 20260904190026 | 83 | 95 | 2.0 | 7.0 | 0.00 | 0.00 | 0.00 | 67 | 1008.8 |
| 20260904184521 | 80 | 30 | 3.0 | 7.0 | 0.00 | 0.00 | 0.00 | 72 | 1008.9 |
| 20260904183050 | 80 | 356 | 3.0 | 8.0 | 0.00 | 0.00 | 0.00 | 72 | 1008.9 |
| 20260904181526 | 81 | 4 | 2.0 | 6.0 | 0.00 | 0.00 | 0.00 | 70 | 1009.0 |
| 20260904180021 | 77 | 49 | 2.0 | 7.0 | 0.00 | 0.00 | 0.00 | 75 | 1008.9 |
| 20260904174556 | 77 | 46 | 3.0 | 8.0 | 0.00 | 0.00 | 0.00 | 75 | 1009.0 |
| 20260904173001 | 77 | 352 | 2.0 | 9.0 | 0.00 | 0.00 | 0.00 | 77 | 1008.9 |
| 20260904171517 | 75 | 52 | 3.0 | 7.0 | 0.00 | 0.00 | 0.00 | 81 | 1008.9 |
| 20260904170042 | 73 | 319 | 3.0 | 7.0 | 0.00 | 0.00 | 0.00 | 83 | 1008.8 |
| 20260904164530 | 72 | 13 | 2.0 | 6.0 | 0.00 | 0.00 | 0.00 | 86 | 1008.7 |
| 20260904163104 | 71 | 324 | 1.0 | 6.0 | 0.00 | 0.00 | 0.00 | 87 | 1008.5 |
| 20260904161605 | 70 | 14 | 2.0 | 6.0 | 0.00 | 0.00 | 0.00 | 88 | 1008.5 |
| 20260904160021 | 69 | 340 | 2.0 | 5.0 | 0.00 | 0.00 | 0.00 | 91 | 1008.5 |
| 20260904154527 | 68 | 325 | 1.0 | 6.0 | 0.00 | 0.00 | 0.00 | 92 | 1008.3 |
| 20260904153057 | 68 | 312 | 2.0 | 6.0 | 0.00 | 0.00 | 0.00 | 93 | 1008.2 |
| 20260904151551 | 67 | 326 | 2.0 | 6.0 | 0.00 | 0.00 | 0.00 | 94 | 1008.2 |
| 20260904150011 | 67 | 360 | 2.0 | 6.0 | 0.00 | 0.00 | 0.00 | 94 | 1008.0 |
| 20260904144512 | 66 | 355 | 2.0 | 5.0 | 0.00 | 0.00 | 0.00 | 94 | 1008.0 |
| 20260904143038 | 66 | 323 | 1.0 | 5.0 | 0.00 | 0.00 | 0.00 | 94 | 1007.9 |
| 20260904141553 | 66 | 299 | 1.0 | 5.0 | 0.00 | 0.00 | 0.00 | 94 | 1007.8 |
| 20260904140113 | 66 | 334 | 1.0 | 5.0 | 0.00 | 0.00 | 0.00 | 94 | 1007.5 |
| 20260904134601 | 66 | 359 | 2.0 | 7.0 | 0.00 | 0.00 | 0.00 | 94 | 1007.5 |
| 20260904133018 | 65 | 340 | 3.0 | 6.0 | 0.00 | 0.00 | 0.00 | 94 | 1007.5 |
| 20260904131530 | 65 | 326 | 3.0 | 7.0 | 0.00 | 0.00 | 0.00 | 94 | 1007.3 |
| 20260904130046 | 65 | 302 | 2.0 | 6.0 | 0.00 | 0.00 | 0.00 | 94 | 1007.1 |
| 20260904124541 | 65 | 337 | 3.0 | 6.0 | 0.00 | 0.00 | 0.00 | 94 | 1006.8 |
| 20260904123023 | 65 | 310 | 1.0 | 5.0 | 0.00 | 0.00 | 0.00 | 94 | 1006.6 |
| 20260904121538 | 64 | 338 | 2.0 | 7.0 | 0.00 | 0.00 | 0.00 | 94 | 1006.4 |
| 20260904114517 | 65 | 252 | 3.0 | 7.0 | 0.00 | 0.00 | 0.00 | 93 | 1006.1 |
| 20260904113100 | 65 | 285 | 2.0 | 6.0 | 0.00 | 0.00 | 0.00 | 93 | 1006.1 |
| 20260904111554 | 65 | 255 | 2.0 | 6.0 | 0.00 | 0.00 | 0.00 | 93 | 1006.0 |
| 20260904110036 | 65 | 294 | 1.0 | 5.0 | 0.00 | 0.00 | 0.00 | 92 | 1005.9 |
| 20260904104559 | 65 | 289 | 2.0 | 7.0 | 0.00 | 0.00 | 0.00 | 92 | 1005.9 |
| 20260904103015 | 65 | 291 | 2.0 | 7.0 | 0.00 | 0.00 | 0.00 | 91 | 1005.7 |
| 20260904101508 | 66 | 304 | 4.0 | 8.0 | 0.00 | 0.00 | 0.00 | 91 | 1005.6 |
| 20260904100058 | 66 | 285 | 3.0 | 8.0 | 0.00 | 0.00 | 0.00 | 91 | 1005.6 |
| 20260904094556 | 66 | 315 | 2.0 | 7.0 | 0.00 | 0.00 | 0.00 | 91 | 1005.5 |
| 20260904093049 | 66 | 301 | 3.0 | 8.0 | 0.00 | 0.00 | 0.00 | 90 | 1005.4 |
| 20260904091506 | 66 | 308 | 4.0 | 11.0 | 0.00 | 0.00 | 0.00 | 90 | 1005.2 |
| 20260904090037 | 67 | 305 | 5.0 | 9.0 | 0.00 | 0.00 | 0.00 | 90 | 1005.3 |
| 20260904084606 | 67 | 304 | 4.0 | 9.0 | 0.00 | 0.00 | 0.00 | 89 | 1005.3 |
| 20260904083011 | 67 | 304 | 4.0 | 10.0 | 0.00 | 0.00 | 0.00 | 88 | 1005.0 |
| 20260904081524 | 68 | 304 | 2.0 | 6.0 | 0.00 | 0.00 | 0.00 | 88 | 1004.9 |
| 20260904080027 | 69 | 300 | 2.0 | 5.0 | 0.00 | 0.00 | 0.00 | 87 | 1004.9 |
| 20260904074539 | 70 | 318 | 1.0 | 6.0 | 0.00 | 0.00 | 0.00 | 84 | 1004.7 |
| 20260904073056 | 73 | 317 | 2.0 | 9.0 | 0.00 | 0.00 | 0.00 | 81 | 1004.6 |
| 20260904071526 | 73 | 8 | 2.0 | 7.0 | 0.00 | 0.00 | 0.00 | 82 | 1004.1 |
| 20260904070056 | 74 | 213 | 4.0 | 9.0 | 0.00 | 0.00 | 0.00 | 81 | 1003.8 |
| 20260904064511 | 74 | 248 | 4.0 | 12.0 | 0.00 | 0.00 | 0.00 | 79 | 1003.6 |
| 20260904063102 | 75 | 217 | 5.0 | 12.0 | 0.00 | 0.00 | 0.00 | 78 | 1003.5 |
| 20260904061550 | 76 | 238 | 4.0 | 13.0 | 0.00 | 0.00 | 0.00 | 76 | 1003.3 |
| 20260904060051 | 77 | 263 | 6.0 | 12.0 | 0.00 | 0.00 | 0.00 | 75 | 1003.3 |
| 20260904054529 | 77 | 220 | 5.0 | 11.0 | 0.00 | 0.00 | 0.00 | 74 | 1003.1 |
| 20260904053101 | 78 | 243 | 7.0 | 14.0 | 0.00 | 0.00 | 0.00 | 73 | 1003.1 |
| 20260904051556 | 78 | 231 | 7.0 | 14.0 | 0.00 | 0.00 | 0.00 | 72 | 1002.9 |
| 20260904050053 | 78 | 212 | 4.0 | 9.0 | 0.00 | 0.00 | 0.00 | 72 | 1003.0 |
| 20260904044521 | 79 | 176 | 6.0 | 11.0 | 0.00 | 0.00 | 0.00 | 71 | 1002.9 |
| 20260904043020 | 78 | 229 | 4.0 | 8.0 | 0.00 | 0.00 | 0.00 | 72 | 1002.9 |
| 20260904041554 | 79 | 224 | 5.0 | 11.0 | 0.00 | 0.00 | 0.00 | 71 | 1002.9 |
| 20260904040014 | 79 | 192 | 5.0 | 10.0 | 0.00 | 0.00 | 0.00 | 70 | 1002.8 |
| 20260904034546 | 80 | 179 | 5.0 | 12.0 | 0.00 | 0.00 | 0.00 | 69 | 1002.7 |
| 20260904033010 | 80 | 208 | 5.0 | 11.0 | 0.00 | 0.00 | 0.00 | 70 | 1002.7 |
| 20260904031530 | 80 | 176 | 5.0 | 11.0 | 0.00 | 0.00 | 0.00 | 69 | 1002.6 |
| 20260904030115 | 79 | 134 | 5.0 | 11.0 | 0.00 | 0.00 | 0.00 | 70 | 1002.5 |
| 20260904024558 | 78 | 193 | 4.0 | 10.0 | 0.00 | 0.00 | 0.00 | 71 | 1002.5 |
| 20260904023030 | 78 | 243 | 4.0 | 9.0 | 0.00 | 0.00 | 0.00 | 71 | 1002.4 |
| 20260904021523 | 77 | 158 | 3.0 | 7.0 | 0.00 | 0.00 | 0.00 | 73 | 1002.1 |
| 20260904020049 | 77 | 205 | 4.0 | 8.0 | 0.00 | 0.00 | 0.00 | 73 | 1002.1 |
| 20260904014505 | 77 | 224 | 4.0 | 7.0 | 0.00 | 0.00 | 0.00 | 72 | 1001.8 |
| 20260904013049 | 77 | 178 | 3.0 | 7.0 | 0.00 | 0.00 | 0.00 | 71 | 1001.6 |
| 20260904011551 | 78 | 190 | 3.0 | 6.0 | 0.00 | 0.00 | 0.00 | 68 | 1001.6 |